START_TIME,STEP,MOV.,P1,t_acc.,E44,t_acc.,A3,t_acc.,P10,t_acc.
1989-08-25T12:00:24.010 ,6,0,0.,1.2,0.,1.2,0.,1.2,0.,1.2
1989-08-25T12:00:25.210 ,6,0,0.,1.2,0.,1.2,0.,1.2,0.,1.2
1989-08-25T12:00:26.410 ,6,0,0.,1.2,0.,1.2,0.,1.2,0.,1.2
1989-08-25T12:00:27.610 ,6,0,0.,1.2,0.,1.2,0.,1.2,0.,1.2
1989-08-25T12:00:28.810 ,6,0,0.,1.2,0.,1.2,0.,1.2,0.,1.2
1989-08-25T12:00:30.010 ,6,0,0.,1.2,0.,1.2,0.,1.2,0.,1.2
1989-08-25T12:00:31.210 ,6,0,0.,1.2,0.,1.2,0.,1.2,0.,1.2
1989-08-25T12:00:32.410 ,6,0,0.,1.2,0.,1.2,0.,1.2,0.,1.2
1989-08-25T12:00:33.610 ,6,0,0.,1.2,0.,1.2,0.,1.2,0.,1.2
1989-08-25T12:00:34.810 ,6,0,0.,1.2,0.,1.2,0.,1.2,0.,1.2
1989-08-25T12:00:36.010 ,6,0,0.,1.2,0.,1.2,0.,1.2,0.,1.2
1989-08-25T12:00:37.210 ,6,0,0.,1.2,0.,1.2,0.,1.2,0.,1.2
1989-08-25T12:00:38.410 ,6,0,0.,1.2,0.,1.2,0.,1.2,0.,1.2
1989-08-25T12:00:39.610 ,6,0,0.,1.2,0.,1.2,0.,1.2,0.,1.2
1989-08-25T12:00:40.810 ,6,0,0.,1.2,0.,1.2,0.,1.2,0.,1.2
1989-08-25T12:00:42.010 ,6,0,0.,1.2,0.,1.2,0.,1.2,0.,1.2
1989-08-25T12:00:43.210 ,6,0,0.,1.2,0.,1.2,0.,1.2,0.,1.2
1989-08-25T12:00:44.410 ,6,0,0.,1.2,0.,1.2,0.,1.2,0.,1.2
1989-08-25T12:00:45.610 ,6,0,0.,1.2,0.,1.2,0.,1.2,0.,1.2
1989-08-25T12:00:46.810 ,6,0,0.,1.2,0.,1.2,0.,1.2,0.,1.2
1989-08-25T12:00:48.010 ,6,0,0.,1.2,0.,1.2,0.,1.2,0.,1.2
1989-08-25T12:00:49.210 ,6,0,0.,1.2,0.,1.2,0.,1.2,0.,1.2
1989-08-25T12:00:50.410 ,6,0,0.,1.2,0.,1.2,0.,1.2,0.,1.2
1989-08-25T12:00:51.610 ,6,0,0.,1.2,0.,1.2,0.,1.2,0.,1.2
1989-08-25T12:00:52.810 ,6,0,0.,1.2,0.,1.2,0.,1.2,0.,1.2
1989-08-25T12:00:54.010 ,6,0,0.,1.2,0.,1.2,0.,1.2,0.,1.2
1989-08-25T12:00:55.210 ,6,0,0.,1.2,0.,1.2,0.,1.2,0.,1.2
1989-08-25T12:00:56.410 ,6,0,0.,1.2,0.,1.2,0.,1.2,0.,1.2
1989-08-25T12:00:57.610 ,6,0,0.,1.2,0.,1.2,0.,1.2,0.,1.2
1989-08-25T12:00:58.810 ,6,0,0.,1.2,0.,1.2,0.,1.2,0.,1.2
1989-08-25T12:01:00.010 ,6,0,0.,1.2,0.,1.2,0.,1.2,0.,1.2
1989-08-25T12:01:01.210 ,6,0,1.,1.2,0.,1.2,0.,1.2,0.,1.2
1989-08-25T12:01:02.410 ,6,0,0.,1.2,0.,1.2,0.,1.2,0.,1.2
1989-08-25T12:01:03.610 ,6,0,0.,1.2,0.,1.2,0.,1.2,0.,1.2
1989-08-25T12:01:04.810 ,6,0,0.,1.2,0.,1.2,0.,1.2,0.,1.2
1989-08-25T12:01:06.010 ,6,0,0.,1.2,0.,1.2,0.,1.2,0.,1.2
1989-08-25T12:01:07.210 ,6,0,0.,1.2,0.,1.2,0.,1.2,0.,1.2
1989-08-25T12:01:08.410 ,6,0,0.,1.2,0.,1.2,0.,1.2,0.,1.2
1989-08-25T12:01:09.610 ,6,0,0.,1.2,0.,1.2,0.,1.2,0.,1.2
1989-08-25T12:01:10.810 ,6,0,0.,1.2,0.,1.2,0.,1.2,0.,1.2
1989-08-25T12:01:12.010 ,6,0,0.,1.2,0.,1.2,0.,1.2,0.,1.2
1989-08-25T12:01:13.210 ,6,0,0.,1.2,0.,1.2,0.,1.2,0.,1.2
1989-08-25T12:01:14.410 ,6,0,0.,1.2,0.,1.2,0.,1.2,0.,1.2
1989-08-25T12:01:15.610 ,6,0,0.,1.2,0.,1.2,0.,1.2,0.,1.2
1989-08-25T12:01:16.810 ,6,0,0.,1.2,0.,1.2,0.,1.2,0.,1.2
1989-08-25T12:01:18.010 ,6,0,0.,1.2,0.,1.2,0.,1.2,0.,1.2
1989-08-25T12:01:19.210 ,6,0,0.,1.2,0.,1.2,0.,1.2,0.,1.2
1989-08-25T12:01:20.410 ,6,0,0.,1.2,0.,1.2,0.,1.2,0.,1.2
1989-08-25T12:01:21.610 ,6,0,0.,1.2,0.,1.2,0.,1.2,0.,1.2
1989-08-25T12:01:22.810 ,6,0,0.,1.2,0.,1.2,0.,1.2,0.,1.2
1989-08-25T12:01:24.010 ,6,0,0.,1.2,0.,1.2,0.,1.2,0.,1.2
1989-08-25T12:01:25.210 ,6,0,0.,1.2,0.,1.2,0.,1.2,0.,1.2
1989-08-25T12:01:26.410 ,6,0,0.,1.2,0.,1.2,0.,1.2,0.,1.2
1989-08-25T12:01:27.610 ,6,0,0.,1.2,0.,1.2,0.,1.2,0.,1.2
1989-08-25T12:01:28.810 ,6,0,0.,1.2,0.,1.2,0.,1.2,0.,1.2
1989-08-25T12:01:30.010 ,6,0,0.,1.2,0.,1.2,0.,1.2,0.,1.2
1989-08-25T12:01:31.210 ,6,0,0.,1.2,0.,1.2,0.,1.2,0.,1.2
1989-08-25T12:01:32.410 ,6,0,0.,1.2,0.,1.2,0.,1.2,0.,1.2
1989-08-25T12:01:33.610 ,6,0,0.,1.2,0.,1.2,0.,1.2,0.,1.2
1989-08-25T12:01:34.810 ,6,0,0.,1.2,0.,1.2,0.,1.2,0.,1.2
1989-08-25T12:01:36.010 ,5,0,0.,1.2,0.,1.2,3.,1.2,0.,1.2
1989-08-25T12:01:37.210 ,5,0,0.,1.2,0.,1.2,7.,1.2,0.,1.2
1989-08-25T12:01:38.410 ,5,0,0.,1.2,0.,1.2,6.,1.2,0.,1.2
1989-08-25T12:01:39.610 ,5,0,0.,1.2,0.,1.2,7.,1.2,0.,1.2
1989-08-25T12:01:40.810 ,5,0,0.,1.2,0.,1.2,6.,1.2,0.,1.2
1989-08-25T12:01:42.010 ,5,0,0.,1.2,0.,1.2,1.,1.2,0.,1.2
1989-08-25T12:01:43.210 ,5,0,0.,1.2,0.,1.2,7.,1.2,0.,1.2
1989-08-25T12:01:44.410 ,5,0,0.,1.2,0.,1.2,2.,1.2,0.,1.2
1989-08-25T12:01:45.610 ,5,0,0.,1.2,0.,1.2,6.,1.2,0.,1.2
1989-08-25T12:01:46.810 ,5,0,0.,1.2,0.,1.2,8.,1.2,0.,1.2
1989-08-25T12:01:48.010 ,5,0,0.,1.2,0.,1.2,6.,1.2,0.,1.2
1989-08-25T12:01:49.210 ,5,0,0.,1.2,0.,1.2,0.,1.2,0.,1.2
1989-08-25T12:01:50.410 ,5,0,0.,1.2,0.,1.2,0.,1.2,0.,1.2
1989-08-25T12:01:51.610 ,5,0,0.,1.2,0.,1.2,0.,1.2,0.,1.2
1989-08-25T12:01:52.810 ,5,0,0.,1.2,0.,1.2,0.,1.2,0.,1.2
1989-08-25T12:01:54.010 ,5,0,0.,1.2,0.,1.2,0.,1.2,0.,1.2
1989-08-25T12:01:55.210 ,5,0,0.,1.2,0.,1.2,0.,1.2,0.,1.2
1989-08-25T12:01:56.410 ,5,0,0.,1.2,0.,1.2,0.,1.2,0.,1.2
1989-08-25T12:01:57.610 ,5,0,0.,1.2,0.,1.2,0.,1.2,0.,1.2
1989-08-25T12:01:58.810 ,5,0,0.,1.2,0.,1.2,0.,1.2,0.,1.2
1989-08-25T12:02:00.010 ,1,0,0.,1.2,0.,1.2,0.,1.2,0.,1.2
1989-08-25T12:02:01.210 ,1,0,0.,1.2,0.,1.2,0.,1.2,0.,1.2
1989-08-25T12:02:02.410 ,1,0,0.,1.2,0.,1.2,0.,1.2,0.,1.2
1989-08-25T12:02:03.610 ,1,0,0.,1.2,0.,1.2,0.,1.2,0.,1.2
1989-08-25T12:02:04.810 ,1,0,0.,1.2,0.,1.2,0.,1.2,0.,1.2
1989-08-25T12:02:06.010 ,1,0,1.,1.2,0.,1.2,0.,1.2,0.,1.2
1989-08-25T12:02:07.210 ,1,0,0.,1.2,0.,1.2,0.,1.2,0.,1.2
1989-08-25T12:02:08.410 ,1,0,0.,1.2,0.,1.2,0.,1.2,0.,1.2
1989-08-25T12:02:09.610 ,1,0,0.,1.2,0.,1.2,0.,1.2,0.,1.2
1989-08-25T12:02:10.810 ,1,0,0.,1.2,0.,1.2,0.,1.2,0.,1.2
1989-08-25T12:02:12.010 ,1,0,0.,1.2,0.,1.2,0.,1.2,0.,1.2
1989-08-25T12:02:13.210 ,1,0,0.,1.2,0.,1.2,0.,1.2,0.,1.2
1989-08-25T12:02:14.410 ,1,0,0.,1.2,0.,1.2,0.,1.2,0.,1.2
1989-08-25T12:02:15.610 ,1,0,0.,1.2,0.,1.2,0.,1.2,0.,1.2
1989-08-25T12:02:16.810 ,1,0,0.,1.2,0.,1.2,0.,1.2,0.,1.2
1989-08-25T12:02:18.010 ,1,0,0.,1.2,0.,1.2,0.,1.2,0.,1.2
1989-08-25T12:02:19.210 ,1,0,0.,1.2,0.,1.2,0.,1.2,0.,1.2
1989-08-25T12:02:20.410 ,1,0,0.,1.2,0.,1.2,0.,1.2,0.,1.2
1989-08-25T12:02:21.610 ,1,0,0.,1.2,0.,1.2,0.,1.2,0.,1.2
1989-08-25T12:02:22.810 ,1,0,0.,1.2,0.,1.2,0.,1.2,0.,1.2
1989-08-25T12:02:24.010 ,0,0,0.,1.2,0.,1.2,0.,1.2,0.,1.2
1989-08-25T12:02:25.210 ,0,0,0.,1.2,0.,1.2,0.,1.2,0.,1.2
1989-08-25T12:02:26.410 ,0,0,0.,1.2,0.,1.2,0.,1.2,0.,1.2
1989-08-25T12:02:27.610 ,0,0,0.,1.2,0.,1.2,0.,1.2,0.,1.2
1989-08-25T12:02:28.810 ,0,0,0.,1.2,0.,1.2,0.,1.2,0.,1.2
1989-08-25T12:02:30.010 ,0,0,0.,1.2,0.,1.2,0.,1.2,0.,1.2
1989-08-25T12:02:31.210 ,0,0,0.,1.2,0.,1.2,0.,1.2,0.,1.2
1989-08-25T12:02:32.410 ,0,0,0.,1.2,0.,1.2,0.,1.2,0.,1.2
1989-08-25T12:02:33.610 ,0,0,0.,1.2,0.,1.2,0.,1.2,0.,1.2
1989-08-25T12:02:34.810 ,0,0,0.,1.2,0.,1.2,0.,1.2,0.,1.2
1989-08-25T12:02:36.010 ,0,0,0.,1.2,0.,1.2,0.,1.2,0.,1.2
1989-08-25T12:02:37.210 ,0,0,0.,1.2,0.,1.2,0.,1.2,0.,1.2
1989-08-25T12:02:38.410 ,0,0,0.,1.2,0.,1.2,0.,1.2,0.,1.2
1989-08-25T12:02:39.610 ,0,0,0.,1.2,0.,1.2,0.,1.2,0.,1.2
1989-08-25T12:02:40.810 ,0,0,0.,1.2,0.,1.2,0.,1.2,0.,1.2
1989-08-25T12:02:42.010 ,0,0,0.,1.2,0.,1.2,0.,1.2,0.,1.2
1989-08-25T12:02:43.210 ,0,0,0.,1.2,0.,1.2,0.,1.2,0.,1.2
1989-08-25T12:02:44.410 ,0,0,1.,1.2,0.,1.2,0.,1.2,0.,1.2
1989-08-25T12:02:45.610 ,0,0,0.,1.2,0.,1.2,0.,1.2,0.,1.2
1989-08-25T12:02:46.810 ,0,0,0.,1.2,0.,1.2,0.,1.2,0.,1.2
1989-08-25T12:02:48.010 ,0,0,0.,1.2,0.,1.2,0.,1.2,0.,1.2
1989-08-25T12:02:49.210 ,0,0,0.,1.2,0.,1.2,0.,1.2,0.,1.2
1989-08-25T12:02:50.410 ,0,0,0.,1.2,0.,1.2,0.,1.2,0.,1.2
1989-08-25T12:02:51.610 ,0,0,0.,1.2,0.,1.2,0.,1.2,0.,1.2
1989-08-25T12:02:52.810 ,0,0,0.,1.2,0.,1.2,0.,1.2,0.,1.2
1989-08-25T12:02:54.010 ,0,0,0.,1.2,0.,1.2,0.,1.2,0.,1.2
1989-08-25T12:02:55.210 ,0,0,0.,1.2,0.,1.2,0.,1.2,0.,1.2
1989-08-25T12:02:56.410 ,0,0,0.,1.2,0.,1.2,0.,1.2,0.,1.2
1989-08-25T12:02:57.610 ,0,0,0.,1.2,0.,1.2,0.,1.2,0.,1.2
1989-08-25T12:02:58.810 ,0,0,0.,1.2,0.,1.2,0.,1.2,0.,1.2
1989-08-25T12:03:00.010 ,0,0,0.,1.2,0.,1.2,0.,1.2,0.,1.2
1989-08-25T12:03:01.210 ,0,0,0.,1.2,0.,1.2,0.,1.2,0.,1.2
1989-08-25T12:03:02.410 ,0,0,0.,1.2,0.,1.2,0.,1.2,0.,1.2
1989-08-25T12:03:03.610 ,0,0,1.,1.2,0.,1.2,0.,1.2,0.,1.2
1989-08-25T12:03:04.810 ,0,0,0.,1.2,0.,1.2,0.,1.2,0.,1.2
1989-08-25T12:03:06.010 ,0,0,0.,1.2,0.,1.2,0.,1.2,0.,1.2
1989-08-25T12:03:07.210 ,0,0,0.,1.2,0.,1.2,0.,1.2,0.,1.2
1989-08-25T12:03:08.410 ,0,0,0.,1.2,0.,1.2,0.,1.2,0.,1.2
1989-08-25T12:03:09.610 ,0,0,0.,1.2,0.,1.2,0.,1.2,0.,1.2
1989-08-25T12:03:10.810 ,0,0,0.,1.2,0.,1.2,0.,1.2,0.,1.2
1989-08-25T12:03:12.010 ,0,0,0.,1.2,0.,1.2,0.,1.2,0.,1.2
1989-08-25T12:03:13.210 ,0,0,1.,1.2,0.,1.2,0.,1.2,0.,1.2
1989-08-25T12:03:14.410 ,0,0,0.,1.2,0.,1.2,0.,1.2,0.,1.2
1989-08-25T12:03:15.610 ,0,0,0.,1.2,0.,1.2,0.,1.2,0.,1.2
1989-08-25T12:03:16.810 ,0,0,0.,1.2,0.,1.2,0.,1.2,0.,1.2
1989-08-25T12:03:18.010 ,0,0,0.,1.2,0.,1.2,0.,1.2,0.,1.2
1989-08-25T12:03:19.210 ,0,0,0.,1.2,0.,1.2,0.,1.2,0.,1.2
1989-08-25T12:03:20.410 ,0,0,0.,1.2,0.,1.2,0.,1.2,0.,1.2
1989-08-25T12:03:21.610 ,0,0,0.,1.2,0.,1.2,0.,1.2,0.,1.2
1989-08-25T12:03:22.810 ,0,0,0.,1.2,0.,1.2,0.,1.2,0.,1.2
1989-08-25T12:03:24.010 ,0,0,0.,1.2,0.,1.2,0.,1.2,0.,1.2
1989-08-25T12:03:25.210 ,0,0,0.,1.2,0.,1.2,0.,1.2,0.,1.2
1989-08-25T12:03:26.410 ,0,0,0.,1.2,0.,1.2,0.,1.2,0.,1.2
1989-08-25T12:03:27.610 ,0,0,0.,1.2,0.,1.2,0.,1.2,0.,1.2
1989-08-25T12:03:28.810 ,0,0,0.,1.2,0.,1.2,0.,1.2,0.,1.2
1989-08-25T12:03:30.010 ,0,0,0.,1.2,0.,1.2,0.,1.2,0.,1.2
1989-08-25T12:03:31.210 ,0,0,0.,1.2,0.,1.2,0.,1.2,0.,1.2
1989-08-25T12:03:32.410 ,0,0,0.,1.2,0.,1.2,0.,1.2,0.,1.2
1989-08-25T12:03:33.610 ,0,0,0.,1.2,0.,1.2,0.,1.2,0.,1.2
1989-08-25T12:03:34.810 ,0,0,0.,1.2,0.,1.2,0.,1.2,0.,1.2
1989-08-25T12:03:36.010 ,0,0,0.,1.2,0.,1.2,0.,1.2,0.,1.2
1989-08-25T12:03:37.210 ,0,0,0.,1.2,0.,1.2,0.,1.2,0.,1.2
1989-08-25T12:03:38.410 ,0,0,0.,1.2,0.,1.2,0.,1.2,0.,1.2
1989-08-25T12:03:39.610 ,0,0,0.,1.2,0.,1.2,0.,1.2,0.,1.2
1989-08-25T12:03:40.810 ,0,0,0.,1.2,0.,1.2,0.,1.2,0.,1.2
1989-08-25T12:03:42.010 ,0,0,0.,1.2,0.,1.2,0.,1.2,0.,1.2
1989-08-25T12:03:43.210 ,0,0,0.,1.2,0.,1.2,0.,1.2,0.,1.2
1989-08-25T12:03:44.410 ,0,0,0.,1.2,0.,1.2,0.,1.2,0.,1.2
1989-08-25T12:03:45.610 ,0,0,0.,1.2,0.,1.2,0.,1.2,0.,1.2
1989-08-25T12:03:46.810 ,0,0,0.,1.2,0.,1.2,0.,1.2,0.,1.2
1989-08-25T12:03:48.010 ,0,0,0.,1.2,0.,1.2,0.,1.2,0.,1.2
1989-08-25T12:03:49.210 ,0,0,0.,1.2,0.,1.2,0.,1.2,0.,1.2
1989-08-25T12:03:50.410 ,0,0,0.,1.2,0.,1.2,0.,1.2,0.,1.2
1989-08-25T12:03:51.610 ,0,0,0.,1.2,0.,1.2,0.,1.2,0.,1.2
1989-08-25T12:03:52.810 ,0,0,0.,1.2,0.,1.2,0.,1.2,0.,1.2
1989-08-25T12:03:54.010 ,0,0,0.,1.2,0.,1.2,0.,1.2,0.,1.2
1989-08-25T12:03:55.210 ,0,0,0.,1.2,0.,1.2,0.,1.2,0.,1.2
1989-08-25T12:03:56.410 ,0,0,0.,1.2,0.,1.2,0.,1.2,0.,1.2
1989-08-25T12:03:57.610 ,0,0,0.,1.2,0.,1.2,0.,1.2,0.,1.2
1989-08-25T12:03:58.810 ,0,0,0.,1.2,0.,1.2,0.,1.2,0.,1.2
1989-08-25T12:04:00.010 ,0,0,0.,1.2,0.,1.2,0.,1.2,0.,1.2
1989-08-25T12:04:01.210 ,0,0,0.,1.2,0.,1.2,0.,1.2,0.,1.2
1989-08-25T12:04:02.410 ,0,0,0.,1.2,0.,1.2,0.,1.2,0.,1.2
1989-08-25T12:04:03.610 ,0,0,0.,1.2,0.,1.2,0.,1.2,0.,1.2
1989-08-25T12:04:04.810 ,0,0,0.,1.2,0.,1.2,0.,1.2,0.,1.2
1989-08-25T12:04:06.010 ,0,0,0.,1.2,0.,1.2,0.,1.2,0.,1.2
1989-08-25T12:04:07.210 ,0,0,0.,1.2,0.,1.2,0.,1.2,0.,1.2
1989-08-25T12:04:08.410 ,0,0,0.,1.2,0.,1.2,0.,1.2,0.,1.2
1989-08-25T12:04:09.610 ,0,0,0.,1.2,0.,1.2,0.,1.2,0.,1.2
1989-08-25T12:04:10.810 ,0,0,0.,1.2,0.,1.2,0.,1.2,0.,1.2
1989-08-25T12:04:12.010 ,0,0,0.,1.2,0.,1.2,0.,1.2,0.,1.2
1989-08-25T12:04:13.210 ,0,0,0.,1.2,0.,1.2,0.,1.2,0.,1.2
1989-08-25T12:04:14.410 ,0,0,0.,1.2,0.,1.2,0.,1.2,0.,1.2
1989-08-25T12:04:15.610 ,0,0,0.,1.2,0.,1.2,0.,1.2,0.,1.2
1989-08-25T12:04:16.810 ,0,0,0.,1.2,0.,1.2,0.,1.2,0.,1.2
1989-08-25T12:04:18.010 ,0,0,0.,1.2,0.,1.2,0.,1.2,0.,1.2
1989-08-25T12:04:19.210 ,0,0,0.,1.2,0.,1.2,0.,1.2,0.,1.2
1989-08-25T12:04:20.410 ,0,0,0.,1.2,0.,1.2,0.,1.2,0.,1.2
1989-08-25T12:04:21.610 ,0,0,0.,1.2,0.,1.2,0.,1.2,0.,1.2
1989-08-25T12:04:22.810 ,0,0,0.,1.2,0.,1.2,0.,1.2,0.,1.2
1989-08-25T12:04:24.010 ,0,0,1.,1.2,0.,1.2,0.,1.2,0.,1.2
1989-08-25T12:04:25.210 ,0,0,0.,1.2,0.,1.2,0.,1.2,0.,1.2
1989-08-25T12:04:26.410 ,0,0,0.,1.2,0.,1.2,0.,1.2,0.,1.2
1989-08-25T12:04:27.610 ,0,0,0.,1.2,0.,1.2,0.,1.2,0.,1.2
1989-08-25T12:04:28.810 ,0,0,0.,1.2,0.,1.2,0.,1.2,0.,1.2
1989-08-25T12:04:30.010 ,0,0,0.,1.2,0.,1.2,0.,1.2,0.,1.2
1989-08-25T12:04:31.210 ,0,0,0.,1.2,0.,1.2,0.,1.2,0.,1.2
1989-08-25T12:04:32.410 ,0,0,0.,1.2,0.,1.2,0.,1.2,0.,1.2
1989-08-25T12:04:33.610 ,0,0,0.,1.2,0.,1.2,0.,1.2,0.,1.2
1989-08-25T12:04:34.810 ,0,0,0.,1.2,0.,1.2,0.,1.2,0.,1.2
1989-08-25T12:04:36.010 ,0,0,0.,1.2,0.,1.2,0.,1.2,0.,1.2
1989-08-25T12:04:37.210 ,0,0,0.,1.2,0.,1.2,0.,1.2,0.,1.2
1989-08-25T12:04:38.410 ,0,0,0.,1.2,0.,1.2,0.,1.2,0.,1.2
1989-08-25T12:04:39.610 ,0,0,0.,1.2,0.,1.2,0.,1.2,0.,1.2
1989-08-25T12:04:40.810 ,0,0,0.,1.2,0.,1.2,0.,1.2,0.,1.2
1989-08-25T12:04:42.010 ,0,0,0.,1.2,0.,1.2,0.,1.2,0.,1.2
1989-08-25T12:04:43.210 ,0,0,0.,1.2,0.,1.2,0.,1.2,0.,1.2
1989-08-25T12:04:44.410 ,0,0,0.,1.2,0.,1.2,0.,1.2,0.,1.2
1989-08-25T12:04:45.610 ,0,0,0.,1.2,0.,1.2,0.,1.2,0.,1.2
1989-08-25T12:04:46.810 ,0,0,0.,1.2,0.,1.2,0.,1.2,0.,1.2
1989-08-25T12:04:48.010 ,0,0,0.,1.2,0.,1.2,0.,1.2,0.,1.2
1989-08-25T12:04:49.210 ,0,0,0.,1.2,0.,1.2,0.,1.2,0.,1.2
1989-08-25T12:04:50.410 ,0,0,0.,1.2,0.,1.2,0.,1.2,0.,1.2
1989-08-25T12:04:51.610 ,0,0,0.,1.2,0.,1.2,0.,1.2,0.,1.2
1989-08-25T12:04:52.810 ,0,0,0.,1.2,0.,1.2,0.,1.2,0.,1.2
1989-08-25T12:04:54.010 ,0,0,0.,1.2,0.,1.2,0.,1.2,0.,1.2
1989-08-25T12:04:55.210 ,0,0,0.,1.2,0.,1.2,0.,1.2,0.,1.2
1989-08-25T12:04:56.410 ,0,0,0.,1.2,0.,1.2,0.,1.2,0.,1.2
1989-08-25T12:04:57.610 ,0,0,0.,1.2,0.,1.2,0.,1.2,0.,1.2
1989-08-25T12:04:58.810 ,0,0,0.,1.2,0.,1.2,0.,1.2,0.,1.2
1989-08-25T12:05:00.010 ,0,0,0.,1.2,0.,1.2,0.,1.2,0.,1.2
1989-08-25T12:05:01.210 ,0,0,0.,1.2,0.,1.2,0.,1.2,0.,1.2
1989-08-25T12:05:02.410 ,0,0,0.,1.2,0.,1.2,0.,1.2,0.,1.2
1989-08-25T12:05:03.610 ,0,0,0.,1.2,0.,1.2,0.,1.2,0.,1.2
1989-08-25T12:05:04.810 ,0,0,0.,1.2,0.,1.2,0.,1.2,0.,1.2
1989-08-25T12:05:06.010 ,0,0,1.,1.2,0.,1.2,0.,1.2,0.,1.2
1989-08-25T12:05:07.210 ,0,0,0.,1.2,0.,1.2,0.,1.2,0.,1.2
1989-08-25T12:05:08.410 ,0,0,0.,1.2,0.,1.2,0.,1.2,0.,1.2
1989-08-25T12:05:09.610 ,0,0,0.,1.2,0.,1.2,0.,1.2,0.,1.2
1989-08-25T12:05:10.810 ,0,0,0.,1.2,0.,1.2,0.,1.2,0.,1.2
1989-08-25T12:05:12.010 ,0,0,0.,1.2,0.,1.2,0.,1.2,0.,1.2
1989-08-25T12:05:13.210 ,0,0,0.,1.2,0.,1.2,0.,1.2,0.,1.2
1989-08-25T12:05:14.410 ,0,0,0.,1.2,0.,1.2,0.,1.2,0.,1.2
1989-08-25T12:05:15.610 ,0,0,0.,1.2,0.,1.2,0.,1.2,0.,1.2
1989-08-25T12:05:16.810 ,0,0,0.,1.2,0.,1.2,0.,1.2,0.,1.2
1989-08-25T12:05:18.010 ,0,0,0.,1.2,0.,1.2,0.,1.2,0.,1.2
1989-08-25T12:05:19.210 ,0,0,0.,1.2,0.,1.2,0.,1.2,0.,1.2
1989-08-25T12:05:20.410 ,0,0,0.,1.2,0.,1.2,0.,1.2,0.,1.2
1989-08-25T12:05:21.610 ,0,0,0.,1.2,0.,1.2,0.,1.2,0.,1.2
1989-08-25T12:05:22.810 ,0,0,0.,1.2,0.,1.2,0.,1.2,0.,1.2
1989-08-25T12:05:24.010 ,0,0,0.,1.2,0.,1.2,0.,1.2,0.,1.2
1989-08-25T12:05:25.210 ,0,0,0.,1.2,0.,1.2,0.,1.2,0.,1.2
1989-08-25T12:05:26.410 ,0,0,0.,1.2,0.,1.2,0.,1.2,0.,1.2
1989-08-25T12:05:27.610 ,0,0,0.,1.2,0.,1.2,0.,1.2,0.,1.2
1989-08-25T12:05:28.810 ,0,0,0.,1.2,0.,1.2,0.,1.2,0.,1.2
1989-08-25T12:05:30.010 ,0,0,0.,1.2,0.,1.2,0.,1.2,0.,1.2
1989-08-25T12:05:31.210 ,0,0,0.,1.2,0.,1.2,0.,1.2,0.,1.2
1989-08-25T12:05:32.410 ,0,0,0.,1.2,0.,1.2,0.,1.2,0.,1.2
1989-08-25T12:05:33.610 ,0,0,0.,1.2,0.,1.2,0.,1.2,0.,1.2
1989-08-25T12:05:34.810 ,0,0,0.,1.2,0.,1.2,1.,1.2,0.,1.2
1989-08-25T12:05:36.010 ,0,0,0.,1.2,0.,1.2,0.,1.2,0.,1.2
1989-08-25T12:05:37.210 ,0,0,0.,1.2,0.,1.2,0.,1.2,0.,1.2
1989-08-25T12:05:38.410 ,0,0,0.,1.2,0.,1.2,0.,1.2,0.,1.2
1989-08-25T12:05:39.610 ,0,0,0.,1.2,0.,1.2,0.,1.2,0.,1.2
1989-08-25T12:05:40.810 ,0,0,0.,1.2,0.,1.2,0.,1.2,0.,1.2
1989-08-25T12:05:42.010 ,0,0,1.,1.2,0.,1.2,0.,1.2,0.,1.2
1989-08-25T12:05:43.210 ,0,0,0.,1.2,0.,1.2,0.,1.2,0.,1.2
1989-08-25T12:05:44.410 ,0,0,0.,1.2,0.,1.2,0.,1.2,0.,1.2
1989-08-25T12:05:45.610 ,0,0,0.,1.2,0.,1.2,0.,1.2,0.,1.2
1989-08-25T12:05:46.810 ,0,0,0.,1.2,0.,1.2,0.,1.2,0.,1.2
1989-08-25T12:05:48.010 ,0,0,0.,1.2,0.,1.2,0.,1.2,0.,1.2
1989-08-25T12:05:49.210 ,0,0,0.,1.2,0.,1.2,0.,1.2,0.,1.2
1989-08-25T12:05:50.410 ,0,0,0.,1.2,0.,1.2,0.,1.2,0.,1.2
1989-08-25T12:05:51.610 ,0,0,0.,1.2,0.,1.2,0.,1.2,0.,1.2
1989-08-25T12:05:52.810 ,0,0,0.,1.2,0.,1.2,0.,1.2,0.,1.2
1989-08-25T12:05:54.010 ,0,0,0.,1.2,0.,1.2,0.,1.2,0.,1.2
1989-08-25T12:05:55.210 ,0,0,0.,1.2,0.,1.2,0.,1.2,0.,1.2
1989-08-25T12:05:56.410 ,0,0,0.,1.2,0.,1.2,0.,1.2,0.,1.2
1989-08-25T12:05:57.610 ,0,0,0.,1.2,0.,1.2,0.,1.2,0.,1.2
1989-08-25T12:05:58.810 ,0,0,0.,1.2,0.,1.2,0.,1.2,0.,1.2
1989-08-25T12:06:00.010 ,0,0,0.,1.2,0.,1.2,0.,1.2,0.,1.2
1989-08-25T12:06:01.210 ,0,0,0.,1.2,0.,1.2,0.,1.2,0.,1.2
1989-08-25T12:06:02.410 ,0,0,1.,1.2,0.,1.2,0.,1.2,0.,1.2
1989-08-25T12:06:03.610 ,0,0,0.,1.2,0.,1.2,0.,1.2,0.,1.2
1989-08-25T12:06:04.810 ,0,0,0.,1.2,0.,1.2,0.,1.2,0.,1.2
1989-08-25T12:06:06.010 ,0,0,0.,1.2,0.,1.2,0.,1.2,0.,1.2
1989-08-25T12:06:07.210 ,0,0,0.,1.2,0.,1.2,0.,1.2,0.,1.2
1989-08-25T12:06:08.410 ,0,0,0.,1.2,0.,1.2,0.,1.2,0.,1.2
1989-08-25T12:06:09.610 ,0,0,0.,1.2,0.,1.2,0.,1.2,0.,1.2
1989-08-25T12:06:10.810 ,0,0,0.,1.2,0.,1.2,0.,1.2,0.,1.2
1989-08-25T12:06:12.010 ,0,0,0.,1.2,0.,1.2,0.,1.2,0.,1.2
1989-08-25T12:06:13.210 ,0,0,0.,1.2,0.,1.2,0.,1.2,0.,1.2
1989-08-25T12:06:14.410 ,0,0,0.,1.2,0.,1.2,0.,1.2,0.,1.2
1989-08-25T12:06:15.610 ,0,0,0.,1.2,0.,1.2,0.,1.2,0.,1.2
1989-08-25T12:06:16.810 ,0,0,0.,1.2,0.,1.2,0.,1.2,0.,1.2
1989-08-25T12:06:18.010 ,0,0,0.,1.2,0.,1.2,0.,1.2,0.,1.2
1989-08-25T12:06:19.210 ,0,0,0.,1.2,0.,1.2,0.,1.2,0.,1.2
1989-08-25T12:06:20.410 ,0,0,0.,1.2,0.,1.2,0.,1.2,0.,1.2
1989-08-25T12:06:21.610 ,0,0,0.,1.2,0.,1.2,0.,1.2,0.,1.2
1989-08-25T12:06:22.810 ,0,0,0.,1.2,0.,1.2,0.,1.2,0.,1.2
1989-08-25T12:06:24.010 ,0,0,0.,1.2,0.,1.2,0.,1.2,0.,1.2
1989-08-25T12:06:25.210 ,0,0,0.,1.2,0.,1.2,0.,1.2,0.,1.2
1989-08-25T12:06:26.410 ,0,0,0.,1.2,0.,1.2,0.,1.2,0.,1.2
1989-08-25T12:06:27.610 ,0,0,0.,1.2,0.,1.2,0.,1.2,0.,1.2
1989-08-25T12:06:28.810 ,0,0,0.,1.2,0.,1.2,0.,1.2,0.,1.2
1989-08-25T12:06:30.010 ,0,0,0.,1.2,0.,1.2,0.,1.2,0.,1.2
1989-08-25T12:06:31.210 ,0,0,0.,1.2,0.,1.2,0.,1.2,0.,1.2
1989-08-25T12:06:32.410 ,0,0,0.,1.2,0.,1.2,0.,1.2,0.,1.2
1989-08-25T12:06:33.610 ,0,0,0.,1.2,0.,1.2,0.,1.2,0.,1.2
1989-08-25T12:06:34.810 ,0,0,0.,1.2,0.,1.2,0.,1.2,0.,1.2
1989-08-25T12:06:36.010 ,0,0,0.,1.2,0.,1.2,0.,1.2,0.,1.2
1989-08-25T12:06:37.210 ,0,0,0.,1.2,0.,1.2,0.,1.2,0.,1.2
1989-08-25T12:06:38.410 ,0,0,0.,1.2,0.,1.2,0.,1.2,0.,1.2
1989-08-25T12:06:39.610 ,0,0,0.,1.2,0.,1.2,0.,1.2,0.,1.2
1989-08-25T12:06:40.810 ,0,0,0.,1.2,0.,1.2,0.,1.2,0.,1.2
1989-08-25T12:06:42.010 ,0,0,0.,1.2,0.,1.2,0.,1.2,0.,1.2
1989-08-25T12:06:43.210 ,0,0,0.,1.2,0.,1.2,0.,1.2,0.,1.2
1989-08-25T12:06:44.410 ,0,0,0.,1.2,0.,1.2,0.,1.2,0.,1.2
1989-08-25T12:06:45.610 ,0,0,0.,1.2,0.,1.2,0.,1.2,0.,1.2
1989-08-25T12:06:46.810 ,0,0,0.,1.2,0.,1.2,0.,1.2,0.,1.2
1989-08-25T12:06:48.010 ,0,0,0.,1.2,0.,1.2,0.,1.2,0.,1.2
1989-08-25T12:06:49.210 ,0,0,0.,1.2,0.,1.2,0.,1.2,0.,1.2
1989-08-25T12:06:50.410 ,0,0,0.,1.2,0.,1.2,0.,1.2,0.,1.2
1989-08-25T12:06:51.610 ,0,0,0.,1.2,0.,1.2,0.,1.2,0.,1.2
1989-08-25T12:06:52.810 ,0,0,0.,1.2,0.,1.2,0.,1.2,0.,1.2
1989-08-25T12:06:54.010 ,0,0,0.,1.2,0.,1.2,0.,1.2,0.,1.2
1989-08-25T12:06:55.210 ,0,0,0.,1.2,0.,1.2,0.,1.2,0.,1.2
1989-08-25T12:06:56.410 ,0,0,0.,1.2,0.,1.2,0.,1.2,0.,1.2
1989-08-25T12:06:57.610 ,0,0,0.,1.2,0.,1.2,0.,1.2,0.,1.2
1989-08-25T12:06:58.810 ,0,0,0.,1.2,0.,1.2,0.,1.2,0.,1.2
1989-08-25T12:07:00.010 ,0,0,0.,1.2,0.,1.2,0.,1.2,0.,1.2
1989-08-25T12:07:01.210 ,0,0,0.,1.2,0.,1.2,0.,1.2,0.,1.2
1989-08-25T12:07:02.410 ,0,0,0.,1.2,0.,1.2,0.,1.2,0.,1.2
1989-08-25T12:07:03.610 ,0,0,0.,1.2,0.,1.2,0.,1.2,0.,1.2
1989-08-25T12:07:04.810 ,0,0,0.,1.2,0.,1.2,0.,1.2,0.,1.2
1989-08-25T12:07:06.010 ,0,0,0.,1.2,0.,1.2,0.,1.2,0.,1.2
1989-08-25T12:07:07.210 ,0,0,0.,1.2,0.,1.2,0.,1.2,0.,1.2
1989-08-25T12:07:08.410 ,0,0,0.,1.2,0.,1.2,0.,1.2,0.,1.2
1989-08-25T12:07:09.610 ,0,0,0.,1.2,0.,1.2,0.,1.2,0.,1.2
1989-08-25T12:07:10.810 ,0,0,0.,1.2,0.,1.2,0.,1.2,0.,1.2
1989-08-25T12:07:12.010 ,4,0,0.,1.2,0.,1.2,0.,1.2,0.,1.2
1989-08-25T12:07:13.210 ,4,0,0.,1.2,0.,1.2,0.,1.2,0.,1.2
1989-08-25T12:07:14.410 ,4,0,0.,1.2,0.,1.2,0.,1.2,0.,1.2
1989-08-25T12:07:15.610 ,4,0,0.,1.2,0.,1.2,0.,1.2,0.,1.2
1989-08-25T12:07:16.810 ,4,0,0.,1.2,0.,1.2,0.,1.2,0.,1.2
1989-08-25T12:07:18.010 ,4,0,0.,1.2,0.,1.2,0.,1.2,0.,1.2
1989-08-25T12:07:19.210 ,4,0,0.,1.2,0.,1.2,0.,1.2,0.,1.2
1989-08-25T12:07:20.410 ,4,0,0.,1.2,0.,1.2,0.,1.2,0.,1.2
1989-08-25T12:07:21.610 ,4,0,0.,1.2,0.,1.2,0.,1.2,0.,1.2
1989-08-25T12:07:22.810 ,4,0,0.,1.2,0.,1.2,0.,1.2,0.,1.2
1989-08-25T12:07:24.010 ,4,0,0.,1.2,0.,1.2,0.,1.2,0.,1.2
1989-08-25T12:07:25.210 ,4,0,0.,1.2,0.,1.2,0.,1.2,0.,1.2
1989-08-25T12:07:26.410 ,4,0,0.,1.2,0.,1.2,0.,1.2,0.,1.2
1989-08-25T12:07:27.610 ,4,0,0.,1.2,0.,1.2,0.,1.2,0.,1.2
1989-08-25T12:07:28.810 ,4,0,0.,1.2,0.,1.2,0.,1.2,0.,1.2
1989-08-25T12:07:30.010 ,4,0,0.,1.2,0.,1.2,0.,1.2,0.,1.2
1989-08-25T12:07:31.210 ,4,0,0.,1.2,0.,1.2,0.,1.2,0.,1.2
1989-08-25T12:07:32.410 ,4,0,0.,1.2,0.,1.2,0.,1.2,0.,1.2
1989-08-25T12:07:33.610 ,4,0,0.,1.2,0.,1.2,0.,1.2,0.,1.2
1989-08-25T12:07:34.810 ,4,0,0.,1.2,0.,1.2,0.,1.2,0.,1.2
1989-08-25T12:07:36.010 ,7,0,0.,1.2,0.,1.2,0.,1.2,0.,1.2
1989-08-25T12:07:37.210 ,7,0,0.,1.2,0.,1.2,0.,1.2,0.,1.2
1989-08-25T12:07:38.410 ,7,0,0.,1.2,0.,1.2,0.,1.2,0.,1.2
1989-08-25T12:07:39.610 ,7,0,0.,1.2,0.,1.2,0.,1.2,0.,1.2
1989-08-25T12:07:40.810 ,7,0,0.,1.2,0.,1.2,0.,1.2,0.,1.2
1989-08-25T12:07:42.010 ,7,0,0.,1.2,0.,1.2,0.,1.2,0.,1.2
1989-08-25T12:07:43.210 ,7,0,0.,1.2,0.,1.2,0.,1.2,0.,1.2
1989-08-25T12:07:44.410 ,7,0,0.,1.2,0.,1.2,0.,1.2,0.,1.2
1989-08-25T12:07:45.610 ,7,0,0.,1.2,0.,1.2,0.,1.2,0.,1.2
1989-08-25T12:07:46.810 ,7,0,0.,1.2,0.,1.2,0.,1.2,0.,1.2
1989-08-25T12:07:48.010 ,7,0,0.,1.2,0.,1.2,2.,1.2,0.,1.2
1989-08-25T12:07:49.210 ,7,0,0.,1.2,0.,1.2,5.,1.2,0.,1.2
1989-08-25T12:07:50.410 ,7,0,0.,1.2,0.,1.2,9.,1.2,0.,1.2
1989-08-25T12:07:51.610 ,7,0,0.,1.2,0.,1.2,6.,1.2,0.,1.2
1989-08-25T12:07:52.810 ,7,0,0.,1.2,0.,1.2,5.,1.2,0.,1.2
1989-08-25T12:07:54.010 ,7,0,0.,1.2,0.,1.2,5.,1.2,0.,1.2
1989-08-25T12:07:55.210 ,7,0,0.,1.2,0.,1.2,9.,1.2,0.,1.2
1989-08-25T12:07:56.410 ,7,0,0.,1.2,0.,1.2,6.,1.2,0.,1.2
1989-08-25T12:07:57.610 ,7,0,0.,1.2,0.,1.2,5.,1.2,0.,1.2
1989-08-25T12:07:58.810 ,7,0,0.,1.2,0.,1.2,3.,1.2,0.,1.2
1989-08-25T12:08:00.010 ,6,0,0.,1.2,0.,1.2,4.,1.2,0.,1.2
1989-08-25T12:08:01.210 ,6,0,0.,1.2,0.,1.2,0.,1.2,0.,1.2
1989-08-25T12:08:02.410 ,6,0,0.,1.2,0.,1.2,0.,1.2,0.,1.2
1989-08-25T12:08:03.610 ,6,0,0.,1.2,0.,1.2,0.,1.2,0.,1.2
1989-08-25T12:08:04.810 ,6,0,0.,1.2,0.,1.2,0.,1.2,0.,1.2
1989-08-25T12:08:06.010 ,6,0,0.,1.2,0.,1.2,0.,1.2,0.,1.2
1989-08-25T12:08:07.210 ,6,0,0.,1.2,0.,1.2,0.,1.2,0.,1.2
1989-08-25T12:08:08.410 ,6,0,0.,1.2,0.,1.2,0.,1.2,0.,1.2
1989-08-25T12:08:09.610 ,6,0,0.,1.2,0.,1.2,0.,1.2,0.,1.2
1989-08-25T12:08:10.810 ,6,0,0.,1.2,0.,1.2,0.,1.2,0.,1.2
1989-08-25T12:08:12.010 ,6,0,0.,1.2,0.,1.2,0.,1.2,0.,1.2
1989-08-25T12:08:13.210 ,6,0,0.,1.2,0.,1.2,0.,1.2,0.,1.2
1989-08-25T12:08:14.410 ,6,0,0.,1.2,0.,1.2,0.,1.2,0.,1.2
1989-08-25T12:08:15.610 ,6,0,0.,1.2,0.,1.2,0.,1.2,0.,1.2
1989-08-25T12:08:16.810 ,6,0,0.,1.2,0.,1.2,0.,1.2,0.,1.2
1989-08-25T12:08:18.010 ,6,0,0.,1.2,0.,1.2,0.,1.2,0.,1.2
1989-08-25T12:08:19.210 ,6,0,0.,1.2,0.,1.2,0.,1.2,0.,1.2
1989-08-25T12:08:20.410 ,6,0,0.,1.2,0.,1.2,0.,1.2,0.,1.2
1989-08-25T12:08:21.610 ,6,0,0.,1.2,0.,1.2,0.,1.2,0.,1.2
1989-08-25T12:08:22.810 ,6,0,0.,1.2,0.,1.2,0.,1.2,0.,1.2
1989-08-25T12:08:24.010 ,6,0,0.,1.2,0.,1.2,0.,1.2,0.,1.2
1989-08-25T12:08:25.210 ,6,0,0.,1.2,0.,1.2,0.,1.2,0.,1.2
1989-08-25T12:08:26.410 ,6,0,0.,1.2,0.,1.2,0.,1.2,0.,1.2
1989-08-25T12:08:27.610 ,6,0,0.,1.2,0.,1.2,0.,1.2,0.,1.2
1989-08-25T12:08:28.810 ,6,0,0.,1.2,0.,1.2,0.,1.2,0.,1.2
1989-08-25T12:08:30.010 ,6,0,0.,1.2,0.,1.2,0.,1.2,0.,1.2
1989-08-25T12:08:31.210 ,6,0,0.,1.2,0.,1.2,0.,1.2,0.,1.2
1989-08-25T12:08:32.410 ,6,0,0.,1.2,0.,1.2,0.,1.2,0.,1.2
1989-08-25T12:08:33.610 ,6,0,0.,1.2,0.,1.2,0.,1.2,0.,1.2
1989-08-25T12:08:34.810 ,6,0,0.,1.2,0.,1.2,0.,1.2,0.,1.2
1989-08-25T12:08:36.010 ,6,0,0.,1.2,0.,1.2,0.,1.2,0.,1.2
1989-08-25T12:08:37.210 ,6,0,0.,1.2,0.,1.2,0.,1.2,0.,1.2